COSMOS 2520

Last updated on Sun Oct 06 2024 00:02:41 GMT+0000 (Coordinated Universal Time)

1 42907U 17046A 24279.54984182 .00000147 00000+0 00000+0 0 9995 2 42907 0.0306 108.1381 0000345 87.1493 62.3770 1.00272313 26180
UTC large
Height (km)
Speed (km/s)
/
Latitude / Longitude
Inclination (degrees)
Orbital Period (minutes)
Azimuth
Elevation
Range (km)
Doppler Factor

Next 0 passes for location: London (51.5072 / 0.1276)

Sorry there are no passes over London.